[[{"header":{"parameterUnit":"m.s-1","parameterCategory":1,"la1":30.2991,"la2":30.254,"lo1":-89.0895,"lo2":-89.0444,"dy":0.0017,"dx":0.0017,"nx":28,"ny":28,"refTime":"2024-10-05T03:00:00:Z","depth":0,"parameterNumber":2,"parameterNumberName":"U-component_of_WINDS"},"data":[0,0,0,0,0,0,0,0,0,0,0,0,0,0,0,0,0,0,0,0,0,0,0,0,0,0,0,0,0,0,0,0,0,0,0,0,0,0,0,0,0,0,0,0,0,0,0,0,0,0,0,0,0,0,0,0,0,0,-5.1325,-5.1324,0,-5.1272,-5.1272,-5.1271,-5.1087,-5.1083,-5.1079,-5.1075,-5.1025,-5.1028,-5.103,0,0,0,0,0,0,0,0,0,0,0,0,0,-5.127,-5.1272,-5.1325,-5.1324,-5.1324,-5.1272,-5.1272,-5.1271,-5.1088,-5.1083,-5.1078,-5.1073,-5.1025,-5.1028,-5.1031,0,0,0,0,0,0,0,0,0,0,0,0,0,-5.1264,-5.1273,-5.1325,-5.1226,-5.1217,-5.1273,-5.1272,-5.1271,-5.1089,-5.1083,-5.1077,-5.1071,-5.1024,-5.1027,-5.1031,-5.118,0,0,-5.1043,-5.1044,0,0,0,0,0,0,0,0,-5.1264,-5.1266,-5.1241,-5.1233,-5.1222,-5.118,-5.1234,-5.124,-5.1091,-5.1138,-5.1075,-5.1068,-5.1082,-5.1081,-5.1085,-5.1177,-5.1175,-5.1043,-5.1045,-5.1047,-5.1048,0,0,0,0,0,0,0,-5.1265,-5.1267,-5.1304,-5.1241,-5.123,-5.1185,-5.1178,-5.1234,-5.1146,-5.1133,-5.112,-5.1116,-5.1076,-5.1082,-5.1082,-5.1174,-5.1043,-5.1046,-5.1049,-5.105,-5.1386,-5.1393,0,0,0,0,0,0,-5.1279,-5.1269,-5.1306,-5.1302,-5.1228,-5.1191,-5.1183,-5.12,-5.1145,-5.113,-5.1121,-5.1107,-5.1078,-5.1078,-5.108,-5.125,-5.1047,-5.1051,-5.1053,-5.138,-5.1388,-5.1395,0,0,0,0,0,0,-5.1278,-5.1284,-5.1308,-5.1282,-5.1281,-5.1199,-5.122,-5.1202,-5.1207,-5.1135,-5.1119,-5.1143,-5.1073,-5.1074,-5.1156,-5.1246,-5.1052,-5.1056,-5.1372,-5.1382,-5.1391,-5.1592,0,0,0,0,0,0,-5.1278,-5.1285,-5.134,-5.1284,-5.1284,-5.1385,-5.1225,-5.1206,-5.1214,-5.1196,-5.1152,-5.1138,-5.1068,-5.1151,-5.116,-5.1247,-5.1059,-5.1364,-5.1377,-5.1388,-5.1577,-5.1608,-5.1634,0,0,0,0,0,-5.1276,-5.1399,-5.1343,-5.1349,-5.135,-5.139,-5.1389,-5.1305,-5.1222,-5.1277,-5.1231,-5.114,-5.1235,-5.1161,-5.1169,-5.126,-5.1358,-5.1373,-5.1387,-5.1564,-5.1602,-5.1633,0,0,0,0,0,0,-5.1468,-5.139,-5.1327,-5.1436,-5.1421,-5.1359,-5.1425,-5.1348,-5.1357,-5.1339,-5.1236,-5.1227,-5.1324,-5.1299,-5.1219,-5.14,-5.1281,-5.1298,-5.1413,-5.1448,-5.1475,-5.1479,-5.1062,0,0,0,0,0,-5.1523,-5.1561,-5.1491,-5.1593,-5.1589,-5.1509,-5.1523,-5.146,-5.144,-5.1433,-5.1393,-5.1379,-5.1405,-5.1425,-5.1445,-5.1573,-5.1561,-5.1639,-5.1667,-5.1691,-5.1707,-5.1773,-5.1807,-5.1444,-5.1444,-5.1444,0,0,-5.1637,-5.1599,-5.1629,-5.1631,-5.1612,-5.1654,-5.1505,-5.1556,-5.1587,-5.1441,-5.1515,-5.1486,-5.1463,-5.1569,-5.1613,-5.1551,-5.1805,-5.171,-5.1729,-5.1733,-5.1792,-5.1827,-5.1857,-5.1454,-5.1452,-5.1451,0,0,-5.1866,-5.1841,-5.1923,-5.1907,-5.188,-5.1826,-5.1846,-5.1796,-5.177,-5.1842,-5.1734,-5.177,-5.1818,-5.1806,-5.1807,-5.2032,-5.1949,-5.2042,-5.219,-5.2256,-5.2284,-5.2309,-5.239,-5.242,-5.2058,-5.2059,-5.2059,0,-5.2012,-5.207,-5.1976,-5.2034,-5.2038,-5.1907,-5.1991,-5.198,-5.1962,-5.1968,-5.1899,-5.1956,-5.1932,-5.2033,-5.2088,-5.2092,-5.2113,-5.2046,-5.2288,-5.2312,-5.2334,-5.241,-5.244,-5.207,-5.2069,-5.2068,-5.2067,0,-5.225,-5.2293,-5.2363,-5.2347,-5.2358,-5.243,-5.2347,-5.2371,-5.2307,-5.2261,-5.2337,-5.2303,-5.2315,-5.2334,-5.2272,-5.2427,-5.2389,-5.2306,-5.2184,-5.2381,-5.2451,-5.2479,-5.2087,-5.2082,-5.2079,-5.2076,0,0,-5.2599,-5.253,-5.2557,-5.2548,-5.2508,-5.254,-5.2605,-5.2615,-5.2638,-5.263,-5.2682,-5.2726,-5.2648,-5.2649,-5.2585,-5.2642,-5.2824,-5.2551,-5.2549,-5.2604,-5.2993,-5.3056,-5.3091,-5.2768,-5.2773,-5.2778,-5.2995,0,-5.2817,-5.2923,-5.284,-5.2962,-5.3,-5.2876,-5.2933,-5.2916,-5.2875,-5.2902,-5.2857,-5.289,-5.2784,-5.2784,-5.2836,-5.2791,-5.2901,-5.2774,-5.2818,-5.282,-5.2827,-5.3127,-5.3194,-5.3401,-5.3021,-5.3026,-5.3029,0,-5.3085,-5.3087,-5.3213,-5.3164,-5.3177,-5.323,-5.3232,-5.3259,-5.3238,-5.3204,-5.3205,-5.3126,-5.3187,-5.3068,-5.3152,-5.3068,-5.3081,-5.3062,-5.3068,-5.3069,-5.2937,-5.3137,-5.3465,-5.3496,-5.3071,-5.3068,-5.3065,0,-5.3327,-5.3362,-5.3441,-5.3437,-5.3383,-5.3423,-5.3403,-5.3374,-5.3386,-5.3388,-5.3395,-5.3406,-5.3412,-5.3423,-5.3349,-5.3268,-5.3444,-5.3317,-5.3418,-5.342,-5.3461,-5.3459,-5.3796,-5.3469,-5.3469,-5.3468,-5.3468,0,-5.3579,-5.3661,-5.3549,-5.3598,-5.3686,-5.3591,-5.3681,-5.3647,-5.3624,-5.3665,-5.3559,-5.3601,-5.35,-5.3531,-5.3474,-5.3553,-5.3557,-5.3532,-5.3516,-5.3542,-5.3545,-5.3549,-5.3533,-5.3476,-5.3475,-5.3473,-5.3472,0,-5.3865,-5.3793,-5.3871,-5.3813,-5.38,-5.3868,-5.3819,-5.3862,-5.3814,-5.3868,-5.3875,-5.38,-5.3831,-5.3759,-5.378,-5.3741,-5.3855,-5.3816,-5.3862,-5.385,-5.3955,-5.3947,-5.4306,-5.4349,-5.3996,-5.3999,-5.4002,0,-5.403,-5.4089,-5.4038,-5.4057,-5.4042,-5.4074,-5.4085,-5.3994,-5.401,-5.399,-5.4036,-5.4059,-5.4071,-5.4128,-5.4076,-5.4093,-5.4053,-5.4178,-5.4055,-5.4079,-5.4056,-5.4053,-5.4059,-5.4204,-5.4208,-5.4212,-5.4214,0,-5.4332,-5.4293,-5.4311,-5.4318,-5.4334,-5.4335,-5.4329,-5.4351,-5.4254,-5.4278,-5.4308,-5.4318,-5.4339,-5.4363,-5.4368,-5.4348,-5.4267,-5.4254,-5.4278,-5.4305,-5.4329,-5.4318,-5.3931,-5.4246,-5.4243,-5.424,-5.4239,-5.4237,-5.4562,-5.4609,-5.458,-5.4604,-5.459,-5.4587,-5.4624,-5.4581,-5.4604,-5.4613,-5.4558,-5.4601,-5.4578,-5.4575,-5.4564,-5.4597,-5.454,-5.4576,-5.4584,-5.4595,-5.4612,-5.4324,-5.4597,-5.4596,-5.4595,-5.4595,-5.4594,0,-5.4858,-5.4833,-5.4856,-5.485,-5.487,-5.479,-5.4779,-5.4801,-5.4839,-5.4824,-5.4839,-5.4874,-5.4897,-5.4848,-5.4863,-5.4899,-5.4862,-5.4906,-5.4903,-5.49,-5.4661,-5.4639,-5.4936,-5.4936,-5.4936,-5.4936,-5.4936,-5.4936,-5.5014,-5.509,-5.5048,-5.5116,-5.509,-5.513,-5.5131,-5.5128,-5.5115,-5.5159,-5.5176,-5.5143,-5.5115,-5.5128,-5.5146,-5.5131,-5.5142,-5.5199,-5.5172,-5.495,-5.4917,-5.4885,-5.4863,-5.5202,-5.5203,-5.5407,-5.5409,-5.541]},{"header":{"parameterUnit":"m.s-1","parameterCategory":1,"la1":30.2991,"la2":30.254,"lo1":-89.0895,"lo2":-89.0444,"dy":0.0017,"dx":0.0017,"nx":28,"ny":28,"refTime":"2024-10-05T03:00:00:Z","depth":0,"parameterNumber":3,"parameterNumberName":"V-component_of_WINDS"},"data":[0,0,0,0,0,0,0,0,0,0,0,0,0,0,0,0,0,0,0,0,0,0,0,0,0,0,0,0,0,0,0,0,0,0,0,0,0,0,0,0,0,0,0,0,0,0,0,0,0,0,0,0,0,0,0,0,0,0,-3.3998,-3.3999,0,-3.405,-3.4051,-3.4051,-3.401,-3.4009,-3.4007,-3.4005,-3.4058,-3.4061,-3.4064,0,0,0,0,0,0,0,0,0,0,0,0,0,-3.3863,-3.3866,-3.3998,-3.3999,-3.4,-3.405,-3.4051,-3.4051,-3.4011,-3.4009,-3.4006,-3.4004,-3.4057,-3.4061,-3.4064,0,0,0,0,0,0,0,0,0,0,0,0,0,-3.3919,-3.3867,-3.3998,-3.3985,-3.3985,-3.405,-3.4051,-3.4052,-3.4011,-3.4009,-3.4006,-3.4003,-3.4056,-3.406,-3.4065,-3.4145,0,0,-3.4079,-3.4081,0,0,0,0,0,0,0,0,-3.3916,-3.3924,-3.3987,-3.3986,-3.3986,-3.4021,-3.4022,-3.4083,-3.4012,-3.4001,-3.4005,-3.4002,-3.4048,-3.4053,-3.4068,-3.4148,-3.415,-3.4079,-3.4082,-3.4084,-3.4085,0,0,0,0,0,0,0,-3.3912,-3.3922,-3.4019,-3.3988,-3.3987,-3.3977,-3.3982,-3.4034,-3.4039,-3.4002,-3.3999,-3.4006,-3.4047,-3.4064,-3.4069,-3.4151,-3.4079,-3.4083,-3.4086,-3.4087,-3.4297,-3.43,0,0,0,0,0,0,-3.391,-3.3919,-3.4017,-3.402,-3.3944,-3.3981,-3.3987,-3.4012,-3.4038,-3.4039,-3.4008,-3.4004,-3.4058,-3.4064,-3.4071,-3.4166,-3.4084,-3.4088,-3.4091,-3.4294,-3.4298,-3.4301,0,0,0,0,0,0,-3.3907,-3.3919,-3.4015,-3.3969,-3.398,-3.3986,-3.4015,-3.4015,-3.4032,-3.4042,-3.4043,-3.4024,-3.4056,-3.4065,-3.4127,-3.4167,-3.409,-3.4094,-3.4291,-3.4295,-3.4299,-3.4357,0,0,0,0,0,0,-3.3903,-3.3918,-3.3949,-3.397,-3.3983,-3.407,-3.4018,-3.4018,-3.404,-3.4035,-3.4058,-3.4059,-3.4054,-3.412,-3.4131,-3.4172,-3.4098,-3.4287,-3.4293,-3.4298,-3.4351,-3.4362,-3.4372,0,0,0,0,0,-3.3898,-3.3963,-3.3951,-3.3963,-3.4022,-3.4073,-3.408,-3.4073,-3.4043,-3.4074,-3.4081,-3.4059,-3.4161,-3.4127,-3.4139,-3.4182,-3.4285,-3.4291,-3.4297,-3.4347,-3.436,-3.4372,0,0,0,0,0,0,-3.3947,-3.3966,-3.3952,-3.4026,-3.4048,-3.4066,-3.4105,-3.4088,-3.4119,-3.4113,-3.4103,-3.4109,-3.4174,-3.4184,-3.4146,-3.426,-3.4218,-3.4227,-3.4251,-3.4264,-3.4274,-3.427,-3.4101,0,0,0,0,0,-3.3967,-3.4007,-3.4021,-3.4085,-3.4096,-3.4099,-3.4121,-3.4113,-3.4136,-3.4145,-3.4156,-3.4179,-3.4216,-3.4241,-3.4276,-3.4353,-3.4357,-3.4388,-3.4398,-3.4407,-3.4415,-3.4455,-3.4469,-3.4322,-3.4322,-3.4322,0,0,-3.4007,-3.4022,-3.4048,-3.4095,-3.4111,-3.4152,-3.4107,-3.4153,-3.4183,-3.4152,-3.4211,-3.422,-3.4245,-3.4314,-3.4346,-3.4325,-3.4456,-3.4415,-3.4422,-3.4425,-3.4463,-3.4477,-3.449,-3.4326,-3.4325,-3.4325,0,0,-3.4102,-3.4118,-3.4172,-3.4189,-3.4214,-3.4215,-3.4228,-3.4248,-3.4253,-3.4312,-3.4289,-3.4325,-3.439,-3.4408,-3.4426,-3.4526,-3.4507,-3.4538,-3.4592,-3.4631,-3.4643,-3.4653,-3.4688,-3.4701,-3.4546,-3.4546,-3.4546,0,-3.4149,-3.421,-3.4202,-3.4249,-3.427,-3.4243,-3.4298,-3.4315,-3.435,-3.4365,-3.4341,-3.442,-3.4435,-3.4508,-3.4533,-3.4548,-3.4562,-3.4535,-3.4642,-3.4652,-3.4662,-3.4695,-3.4708,-3.4549,-3.4549,-3.4548,-3.4548,0,-3.4266,-3.431,-3.435,-3.4385,-3.441,-3.4461,-3.4459,-3.4486,-3.4476,-3.4479,-3.4539,-3.4556,-3.4593,-3.461,-3.4601,-3.4682,-3.4668,-3.4644,-3.4601,-3.4679,-3.4711,-3.4723,-3.4554,-3.4553,-3.4552,-3.4551,0,0,-3.4394,-3.4422,-3.4437,-3.4452,-3.4477,-3.451,-3.456,-3.4596,-3.4618,-3.4644,-3.4684,-3.4739,-3.4716,-3.4736,-3.4729,-3.4764,-3.4841,-3.4735,-3.4735,-3.4753,-3.493,-3.4948,-3.4963,-3.4829,-3.4831,-3.4833,-3.4928,0,-3.4489,-3.4574,-3.4567,-3.4648,-3.4687,-3.4662,-3.4705,-3.4725,-3.4729,-3.4763,-3.4767,-3.4806,-3.4773,-3.4785,-3.4819,-3.4825,-3.4877,-3.4818,-3.4866,-3.4868,-3.486,-3.498,-3.4999,-3.5088,-3.494,-3.4942,-3.4944,0,-3.4611,-3.464,-3.4725,-3.4744,-3.476,-3.4798,-3.483,-3.4863,-3.4885,-3.4886,-3.4908,-3.4894,-3.4943,-3.49,-3.4967,-3.4927,-3.4946,-3.4952,-3.4955,-3.4959,-3.491,-3.4986,-3.5116,-3.5129,-3.4963,-3.4961,-3.496,0,-3.4694,-3.4755,-3.4813,-3.4827,-3.485,-3.4878,-3.4889,-3.4908,-3.493,-3.4958,-3.4972,-3.5006,-3.5024,-3.505,-3.5046,-3.5015,-3.5114,-3.507,-3.5115,-3.5116,-3.5137,-3.5136,-3.5272,-3.5151,-3.515,-3.515,-3.515,0,-3.4801,-3.4854,-3.485,-3.4886,-3.4944,-3.4936,-3.4993,-3.5001,-3.5018,-3.5054,-3.5035,-3.5069,-3.5062,-3.5096,-3.5094,-3.5149,-3.5158,-3.5159,-3.5158,-3.5161,-3.5161,-3.5173,-3.5167,-3.5154,-3.5153,-3.5152,-3.5152,0,-3.4904,-3.4904,-3.4966,-3.4983,-3.4988,-3.503,-3.5044,-3.5078,-3.508,-3.5126,-3.5137,-3.5141,-3.518,-3.5178,-3.5223,-3.5221,-3.5289,-3.5281,-3.5282,-3.528,-3.5325,-3.5321,-3.5473,-3.5493,-3.5359,-3.5361,-3.5362,0,-3.4972,-3.5012,-3.5033,-3.5056,-3.5068,-3.5106,-3.5128,-3.5121,-3.5144,-3.5172,-3.5202,-3.5239,-3.5269,-3.5333,-3.534,-3.5374,-3.5365,-3.5417,-3.537,-3.5372,-3.5366,-3.5363,-3.5367,-3.5426,-3.5427,-3.5428,-3.5429,0,-3.5092,-3.509,-3.5123,-3.5155,-3.5182,-3.5208,-3.5231,-3.5251,-3.5246,-3.5274,-3.5313,-3.5336,-3.5382,-3.5419,-3.5451,-3.5462,-3.5445,-3.5444,-3.5456,-3.5459,-3.5458,-3.5459,-3.5306,-3.544,-3.5439,-3.5438,-3.5438,-3.5437,-3.5179,-3.5213,-3.5233,-3.527,-3.5286,-3.5308,-3.534,-3.5346,-3.5379,-3.5416,-3.5409,-3.5454,-3.5474,-3.5516,-3.553,-3.5564,-3.5546,-3.5564,-3.5568,-3.5573,-3.5577,-3.5453,-3.557,-3.557,-3.5569,-3.5569,-3.5569,0,-3.5297,-3.5309,-3.5343,-3.5376,-3.5405,-3.5386,-3.541,-3.5436,-3.5475,-3.5495,-3.5524,-3.557,-3.5606,-3.5615,-3.5649,-3.5675,-3.5668,-3.5685,-3.5682,-3.5685,-3.5592,-3.5578,-3.569,-3.569,-3.569,-3.569,-3.569,-3.569,-3.5362,-3.5418,-3.5419,-3.5482,-3.5493,-3.5537,-3.5552,-3.5572,-3.5588,-3.564,-3.5669,-3.5675,-3.5691,-3.5726,-3.5758,-3.576,-3.5773,-3.5792,-3.5791,-3.5704,-3.5692,-3.568,-3.5667,-3.5796,-3.5796,-3.5881,-3.5882,-3.5883]}]]